Weather History for Chariton, IA

Change the Weather History Date:

Friday, November 8, 2013

  Actual Average Record
Temperature  
Mean Temperature 42 °F -  
Max Temperature 59 °F 52 °F 80 °F (1999)
Min Temperature 26 °F 30 °F -13 °F (1991)
Degree Days  
Heating Degree Days 22    
Moisture  
Dew Point 30 °F    
Average Humidity 58    
Maximum Humidity 86    
Minimum Humidity 39    
Precipitation  
Precipitation 0.00 in - - ()
Sea Level Pressure  
Sea Level Pressure 30.03 in    
Wind  
Wind Speed 13 mph (South)    
Max Wind Speed 34 mph    
Max Gust Speed 45 mph    
Visibility 10 miles    
Events      
Averages and records for this station are not official NWS values.
T = Trace of Precipitation, MM = Missing Value Source: NWS Daily Summary

Daily Weather History Graph

Daily Weather History Graph

Search for Another Location

Airport:

Trip Planner

Search our weather history database for the weather conditions in past years. The results will help you decide how hot, cold, wet, or windy it might be!

Date:

Astronomy

Nov. 08, 2013 Rise Set
Actual Time 6:52 AM CST 5:00 PM CST
Civil Twilight 6:23 AM CST 5:29 PM CST
Nautical Twilight 5:51 AM CST 6:02 PM CST
Astronomical Twilight 5:18 AM CST 6:35 PM CST
Moon 11:49 AM CST (11/8) 10:22 PM CST (11/8)
Length of Visible Light 11h 06m
Length of Day
10h 08m
Waxing Crescent, 33% of the Moon is Illuminated
Nov 8
Waxing Crescent
Nov 9
First Quarter
Nov 17
Full
Nov 25
Last Quarter
Dec 2
New

Hourly Weather History & Observations

Time (CST) Temp. Windchill Dew Point Humidity Pressure Visibility Wind Dir Wind Speed Gust Speed Precip Events Conditions
12:15 AM 32.0 °F 24.2 °F 23.0 °F 69% 30.30 in 10.0 mi WSW 9.2 mph - N/A   Clear
12:35 AM 32.0 °F 24.8 °F 23.0 °F 69% 30.30 in 10.0 mi WSW 8.1 mph - N/A   Clear
12:55 AM 32.0 °F 24.8 °F 23.0 °F 69% 30.30 in 10.0 mi WSW 8.1 mph - N/A   Clear
1:15 AM 32.0 °F 25.6 °F 23.0 °F 69% 30.29 in 10.0 mi SW 6.9 mph - N/A   Clear
1:35 AM 32.0 °F 25.6 °F 23.0 °F 69% 30.29 in 10.0 mi SW 6.9 mph - N/A   Clear
1:55 AM 32.0 °F 25.6 °F 23.0 °F 69% 30.29 in 10.0 mi SW 6.9 mph - N/A   Clear
2:15 AM 32.0 °F 24.8 °F 23.0 °F 69% 30.28 in 10.0 mi SW 8.1 mph - N/A   Scattered Clouds
2:35 AM 30.2 °F 24.3 °F 23.0 °F 75% 30.28 in 10.0 mi SSW 5.8 mph - N/A   Partly Cloudy
2:55 AM 30.2 °F 25.4 °F 23.0 °F 75% 30.28 in 10.0 mi SSW 4.6 mph - N/A   Clear
3:15 AM 28.4 °F 22.2 °F 23.0 °F 80% 30.27 in 10.0 mi SSW 5.8 mph - N/A   Clear
3:35 AM 28.4 °F 21.2 °F 23.0 °F 80% 30.27 in 10.0 mi SSW 6.9 mph - N/A   Clear
3:55 AM 30.2 °F 21.9 °F 23.0 °F 75% 30.26 in 10.0 mi SSW 9.2 mph - N/A   Clear
4:15 AM 28.4 °F 23.3 °F 23.0 °F 80% 30.25 in 10.0 mi SSE 4.6 mph - N/A   Clear
4:35 AM 26.6 °F 20.0 °F 23.0 °F 86% 30.24 in 10.0 mi SSE 5.8 mph - N/A   Clear
4:55 AM 28.4 °F 22.2 °F 23.0 °F 80% 30.25 in 10.0 mi SSE 5.8 mph - N/A   Clear
5:15 AM 28.4 °F 22.2 °F 23.0 °F 80% 30.24 in 10.0 mi SSE 5.8 mph - N/A   Clear
5:35 AM 28.4 °F 21.2 °F 23.0 °F 80% 30.23 in 10.0 mi SSE 6.9 mph - N/A   Clear
5:55 AM 28.4 °F 20.4 °F 23.0 °F 80% 30.23 in 10.0 mi South 8.1 mph - N/A   Clear
6:15 AM 30.2 °F 22.6 °F 23.0 °F 75% 30.22 in 10.0 mi South 8.1 mph - N/A   Scattered Clouds
6:35 AM 30.2 °F 21.3 °F 23.0 °F 75% 30.22 in 10.0 mi SSE 10.4 mph - N/A   Mostly Cloudy
6:55 AM 32.0 °F 23.0 °F 23.0 °F 69% 30.21 in 10.0 mi South 11.5 mph - N/A   Mostly Cloudy
7:15 AM 32.0 °F 22.5 °F 24.8 °F 75% 30.21 in 10.0 mi South 12.7 mph - N/A   Mostly Cloudy
7:35 AM 33.8 °F 26.4 °F 24.8 °F 70% 30.20 in 10.0 mi SSE 9.2 mph - N/A   Mostly Cloudy
7:55 AM 33.8 °F 25.3 °F 24.8 °F 70% 30.20 in 10.0 mi SSE 11.5 mph - N/A   Mostly Cloudy
8:15 AM 35.6 °F 27.5 °F 26.6 °F 70% 30.19 in 10.0 mi South 11.5 mph - N/A   Partly Cloudy
8:35 AM 35.6 °F 27.5 °F 26.6 °F 70% 30.19 in 10.0 mi SSE 11.5 mph - N/A   Clear
8:55 AM 37.4 °F 28.9 °F 26.6 °F 65% 30.18 in 10.0 mi South 13.8 mph 20.7 mph N/A   Clear
9:15 AM 39.2 °F 30.5 °F 28.4 °F 65% 30.17 in 10.0 mi SSE 16.1 mph - N/A   Clear
9:35 AM 41.0 °F 33.1 °F 28.4 °F 61% 30.15 in 10.0 mi SSE 15.0 mph 24.2 mph N/A   Clear
9:55 AM 41.0 °F 32.5 °F 28.4 °F 61% 30.14 in 10.0 mi SSE 17.3 mph - N/A   Clear
10:15 AM 42.8 °F 34.0 °F 28.4 °F 57% 30.12 in 10.0 mi South 20.7 mph 28.8 mph N/A   Clear
10:35 AM 44.6 °F 35.9 °F 28.4 °F 53% 30.11 in 10.0 mi SSE 23.0 mph - N/A   Clear
10:55 AM 46.4 °F 38.3 °F 28.4 °F 50% 30.09 in 10.0 mi SSE 23.0 mph 29.9 mph N/A   Clear
11:15 AM 48.2 °F - 30.2 °F 50% 30.07 in 10.0 mi SSE 19.6 mph 33.4 mph N/A   Clear
11:35 AM 50.0 °F - 30.2 °F 47% 30.04 in 10.0 mi SSE 25.3 mph 34.5 mph N/A   Clear
11:55 AM 51.8 °F - 32.0 °F 47% 30.03 in 10.0 mi SSE 25.3 mph 31.1 mph N/A   Clear
12:15 PM 53.6 °F - 32.0 °F 44% 30.00 in 10.0 mi SSE 23.0 mph 35.7 mph N/A   Clear
12:35 PM 53.6 °F - 33.8 °F 47% 29.97 in 10.0 mi SSE 25.3 mph 34.5 mph N/A   Clear
12:55 PM 53.6 °F - 33.8 °F 47% 29.94 in 10.0 mi South 26.5 mph 35.7 mph N/A   Clear
1:15 PM 55.4 °F - 35.6 °F 47% 29.92 in 10.0 mi South 25.3 mph 36.8 mph N/A   Clear
1:35 PM 57.2 °F - 35.6 °F 44% 29.90 in 10.0 mi SSE 24.2 mph 38.0 mph N/A   Clear
1:55 PM 57.2 °F - 35.6 °F 44% 29.86 in 10.0 mi SSE 27.6 mph 38.0 mph N/A   Clear
2:15 PM 59.0 °F - 33.8 °F 39% 29.85 in 10.0 mi South 27.6 mph 36.8 mph N/A   Clear
2:35 PM 59.0 °F - 33.8 °F 39% 29.84 in 10.0 mi South 34.5 mph 44.9 mph N/A   Clear
2:55 PM 59.0 °F - 33.8 °F 39% 29.83 in 10.0 mi South 27.6 mph 43.7 mph N/A   Clear
3:15 PM 59.0 °F - 35.6 °F 42% 29.83 in 10.0 mi South 29.9 mph 43.7 mph N/A   Clear
3:35 PM 59.0 °F - 35.6 °F 42% 29.84 in 10.0 mi South 25.3 mph 32.2 mph N/A   Clear
3:55 PM 59.0 °F - 35.6 °F 42% 29.84 in 10.0 mi South 26.5 mph 34.5 mph N/A   Clear
4:15 PM 57.2 °F - 35.6 °F 44% 29.84 in 10.0 mi South 25.3 mph 32.2 mph N/A   Clear
4:35 PM 57.2 °F - 35.6 °F 44% 29.84 in 10.0 mi South 21.9 mph 31.1 mph N/A   Clear
4:55 PM 57.2 °F - 35.6 °F 44% 29.85 in 10.0 mi South 18.4 mph 27.6 mph N/A   Clear
5:15 PM 55.4 °F - 35.6 °F 47% 29.85 in 10.0 mi South 18.4 mph 25.3 mph N/A   Clear
5:35 PM 55.4 °F - 37.4 °F 51% 29.86 in 10.0 mi South 17.3 mph - N/A   Clear
5:55 PM 53.6 °F - 37.4 °F 54% 29.83 in 10.0 mi South 17.3 mph 24.2 mph N/A   Scattered Clouds
6:15 PM 53.6 °F - 37.4 °F 54% 29.84 in 10.0 mi South 15.0 mph - N/A   Overcast
6:35 PM 53.6 °F - 37.4 °F 54% 29.84 in 10.0 mi South 18.4 mph - N/A   Overcast
6:55 PM 55.4 °F - 35.6 °F 47% 29.83 in - South 19.6 mph - N/A   Overcast
7:15 PM 53.6 °F - 35.6 °F 51% 29.84 in 10.0 mi South 18.4 mph - N/A   Overcast
7:35 PM 55.4 °F - 35.6 °F 47% 29.83 in 10.0 mi South 18.4 mph 26.5 mph N/A   Overcast
7:55 PM 55.4 °F - 35.6 °F 47% 29.84 in 10.0 mi South 16.1 mph 21.9 mph N/A   Overcast
8:15 PM 55.4 °F - 35.6 °F 47% 29.83 in 10.0 mi SSW 20.7 mph 27.6 mph N/A   Overcast
8:35 PM 55.4 °F - 35.6 °F 47% 29.83 in 10.0 mi SSW 18.4 mph 26.5 mph N/A   Overcast
8:55 PM 55.4 °F - 35.6 °F 47% 29.83 in 10.0 mi SSW 18.4 mph 27.6 mph N/A   Overcast
9:15 PM 55.4 °F - 35.6 °F 47% 29.84 in 10.0 mi SSW 17.3 mph 27.6 mph N/A   Overcast
9:35 PM 55.4 °F - 35.6 °F 47% 29.84 in 10.0 mi SSW 17.3 mph 24.2 mph N/A   Mostly Cloudy
9:55 PM 53.6 °F - 35.6 °F 51% 29.84 in 10.0 mi SSW 16.1 mph 23.0 mph N/A   Partly Cloudy
10:15 PM 53.6 °F - 35.6 °F 51% 29.84 in 10.0 mi SW 16.1 mph 25.3 mph N/A   Partly Cloudy
10:35 PM 53.6 °F - 35.6 °F 51% 29.85 in 10.0 mi SW 15.0 mph 21.9 mph N/A   Partly Cloudy
10:55 PM 53.6 °F - 35.6 °F 51% 29.86 in 10.0 mi SW 13.8 mph 21.9 mph N/A   Partly Cloudy
11:15 PM 51.8 °F - 35.6 °F 54% 29.87 in 10.0 mi SW 11.5 mph 18.4 mph N/A   Scattered Clouds
11:35 PM 51.8 °F - 35.6 °F 54% 29.87 in 10.0 mi SW 11.5 mph 19.6 mph N/A   Scattered Clouds
11:55 PM 50.0 °F - 35.6 °F 58% 29.87 in 10.0 mi SW 11.5 mph 17.3 mph N/A   Partly Cloudy